TimeCDT,TemperatureF,Dew PointF,Humidity,Sea Level PressureIn,VisibilityMPH,Wind Direction,Wind SpeedMPH,Gust SpeedMPH,PrecipitationIn,Events,Conditions,WindDirDegrees,DateUTC
12:53 AM,84.9,77.0,77,30.04,10.0,Variable,4.6,-,N/A,,Clear,0,2013-08-04 05:53:00
1:49 AM,84.2,78.8,84,30.03,10.0,WSW,6.9,-,N/A,,Mostly Cloudy,240,2013-08-04 06:49:00
1:53 AM,84.0,78.1,82,30.03,10.0,Variable,4.6,-,N/A,,Scattered Clouds,0,2013-08-04 06:53:00
2:21 AM,84.2,78.8,84,30.03,10.0,Calm,Calm,-,N/A,,Mostly Cloudy,0,2013-08-04 07:21:00
2:29 AM,84.2,78.8,84,30.03,10.0,Calm,Calm,-,N/A,,Scattered Clouds,0,2013-08-04 07:29:00
2:53 AM,84.0,78.1,82,30.02,10.0,Calm,Calm,-,N/A,,Clear,0,2013-08-04 07:53:00
3:53 AM,82.9,78.1,85,30.03,10.0,Variable,3.5,-,N/A,,Clear,0,2013-08-04 08:53:00
4:53 AM,82.9,78.1,85,30.03,10.0,Calm,Calm,-,N/A,,Clear,0,2013-08-04 09:53:00
5:53 AM,82.0,78.1,88,30.04,10.0,Calm,Calm,-,N/A,,Clear,0,2013-08-04 10:53:00
6:53 AM,82.9,78.1,85,30.05,8.0,Calm,Calm,-,N/A,,Clear,0,2013-08-04 11:53:00
7:53 AM,84.9,78.1,80,30.06,10.0,Calm,Calm,-,N/A,,Clear,0,2013-08-04 12:53:00
8:53 AM,86.0,77.0,74,30.07,10.0,Variable,4.6,-,N/A,,Clear,0,2013-08-04 13:53:00
9:53 AM,89.1,75.9,65,30.06,10.0,Variable,3.5,-,N/A,,Clear,0,2013-08-04 14:53:00
10:53 AM,89.1,77.0,67,30.06,10.0,SW,6.9,-,N/A,,Clear,230,2013-08-04 15:53:00
11:53 AM,90.0,77.0,65,30.05,10.0,Variable,5.8,-,N/A,,Clear,0,2013-08-04 16:53:00
12:53 PM,90.0,78.1,68,30.03,10.0,SW,5.8,-,N/A,,Partly Cloudy,220,2013-08-04 17:53:00
1:53 PM,91.9,78.1,64,30.01,10.0,Variable,6.9,-,N/A,,Clear,0,2013-08-04 18:53:00
2:53 PM,89.1,78.1,70,29.99,10.0,SW,6.9,-,N/A,,Mostly Cloudy,230,2013-08-04 19:53:00
3:53 PM,90.0,78.1,68,29.97,10.0,WSW,10.4,16.1,N/A,,Clear,240,2013-08-04 20:53:00
4:53 PM,89.1,78.1,70,29.97,10.0,WSW,11.5,18.4,N/A,,Clear,240,2013-08-04 21:53:00
5:53 PM,89.1,78.1,70,29.97,10.0,WSW,8.1,-,N/A,,Clear,240,2013-08-04 22:53:00
6:48 PM,87.8,78.8,75,29.97,10.0,West,9.2,-,N/A,Thunderstorm,Scattered Clouds,260,2013-08-04 23:48:00
6:53 PM,88.0,78.1,72,29.97,10.0,WSW,8.1,-,N/A,Thunderstorm,Scattered Clouds,250,2013-08-04 23:53:00
7:26 PM,80.6,69.8,70,30.00,10.0,NNE,4.6,-,0.00,Rain-Thunderstorm,Light Thunderstorms and Rain,30,2013-08-05 00:26:00
7:53 PM,81.0,71.1,72,30.00,10.0,NNE,3.5,-,0.00,Thunderstorm,Thunderstorm,30,2013-08-05 00:53:00
8:13 PM,82.4,71.6,70,30.01,10.0,Calm,Calm,-,N/A,,Clear,0,2013-08-05 01:13:00
8:53 PM,82.0,73.0,74,30.02,10.0,Calm,Calm,-,N/A,,Clear,0,2013-08-05 01:53:00
9:53 PM,82.0,73.0,74,30.03,10.0,Calm,Calm,-,N/A,,Scattered Clouds,0,2013-08-05 02:53:00
10:53 PM,82.9,73.9,74,30.03,10.0,Calm,Calm,-,N/A,,Clear,0,2013-08-05 03:53:00
11:53 PM,82.0,73.0,74,30.02,10.0,Calm,Calm,-,N/A,,Clear,0,2013-08-05 04:53:00